User: anonymous   Login
Location: ???????
(55.2903°N, 39.1554°E)
Time: 23:30:19
(UTC+00:00)
Language:

Cosmos 2112 Rocket - Orbit

View from above orbital plane
View from above orbital plane
View from above satellite
View from above satellite

Ground track
Ground track

The orbit data is extracted from the following two-line orbital elements,

1 21015U 90111B   25136.70634811  .00000245  00000-0  91096-4 0  9998
2 21015  74.0505 233.7740 0020851 144.9747 215.2783 14.37074484901077
Epoch (UTC): 16 May 2025 16:57:08
Eccentricity: 0.0020851
inclination: 74.0505°
perigee height: 753 km
apogee height: 783 km
right ascension of ascending node: 233.7740°
argument of perigee: 144.9747°
revolutions per day: 14.37074484
mean anomaly at epoch: 215.2783°
orbit number at epoch: 90107

The dashed part of the orbit path shows where the satellite is in the earth's shadow,  

DLR